RH
79 81 82 86 82 71 72 69 63 65 68 67 61 62 59 50 47 48 40 26 27 20 22 54 66 79 88 64 46 42 33 73 88 89 75 62 44 46 42 36 33 25 27
87 88 82 84 86 84 75 72 72 70 69 65 62 61 58 53 48 46 38 34 31 24 28 27 43 52 62 69 65 57 38 28 68 79 75 70 64 67 57 34 29 24 25
83 86 84 78 86 84 86 80 77 76 73 71 68 65 63 62 55 50 45 36 51 55 64 84 68 61 58 70 77 66 50 33 36 50 68 65 75 82 74 50 27 25 24
80 82 82 83 86 86 82 82 83 84 82 79 76 76 73 69 65 60 50 42 54 67 73 76 64 61 40 28 39 45 42 33 30 37 84 83 73 82 77 71 28 27 25
81 81 79 84 88 87 90 90 88 86 83 82 82 82 82 78 73 72 62 54 51 58 71 80 82 80 66 32 26 35 37 37 34 49 84 81 76 90 82 81 29 30 28
85 84 84 87 87 88 90 93 94 90 87 84 82 82 82 81 80 78 74 66 58 61 62 68 74 76 79 58 33 26 33 36 39 46 79 79 73 77 74 83 64 28 29
78 78 79 80 80 82 83 84 84 84 84 86 84 83 81 79 78 82 83 80 72 66 64 67 68 68 74 70 55 34 28 30 39 54 62 77 82 85 86 73 68 31 30
75 70 60 55 59 63 65 67 68 74 82 83 82 82 83 84 84 80 80 80 79 78 74 67 60 57 65 75 75 60 34 29 35 53 71 80 79 80 86 86 78 51 29
49 34 29 25 24 24 27 32 45 57 63 68 74 76 79 79 80 87 87 82 78 77 76 75 74 70 62 61 70 76 71 35 28 33 73 77 78 85 81 79 70 63 35
20 17 16 15 14 13 12 11 11 11 11 16 36 53 62 71 74 77 82 90 88 85 81 77 76 74 73 71 62 60 70 78 49 28 31 50 65 79 89 83 79 49 38
19 17 16 14 13 12 11 11 10 10 9 10 11 11 12 20 44 61 79 86 98 91 90 87 85 87 85 83 76 70 63 61 72 74 35 30 43 78 77 78 76 58 37
17 15 14 12 11 11 11 12 12 13 13 14 16 16 16 16 15 23 47 69 74 81 79 87 83 84 89 90 85 84 78 71 64 70 82 72 34 49 66 71 67 58 42
17 14 12 12 12 13 13 14 17 18 19 20 20 21 22 22 20 20 18 20 48 66 84 80 84 86 82 87 84 88 87 85 83 77 76 84 73 51 79 81 76 68 55
15 13 13 13 14 16 17 17 18 17 17 18 19 20 22 24 27 27 26 26 29 58 62 74 78 74 76 83 89 89 90 94 82 80 84 90 80 69 73 74 72 69 65
16 15 16 17 19 19 19 18 17 17 18 22 26 29 30 33 32 33 33 33 31 33 50 55 63 74 77 74 77 93 98 96 95 94 86 91 84 81 77 74 75 73 76
18 19 19 20 22 21 19 17 16 18 22 28 36 39 41 46 49 47 44 42 39 38 37 44 53 57 61 66 70 71 83 100 100 100 100 95 94 92 92 90 90 87 86
21 22 23 24 23 21 18 16 20 27 31 38 44 43 45 48 48 49 50 52 52 47 45 42 43 49 54 58 68 77 73 69 78 90 94 91 87 92 93 90 94 93 89
26 23 23 26 25 21 16 20 28 37 41 50 60 58 56 54 55 55 59 59 65 63 61 58 55 52 56 59 58 60 64 65 61 57 57 70 80 86 92 93 90 95 95
24 25 24 26 25 19 16 20 24 33 37 48 45 47 54 58 60 60 62 67 69 82 86 79 70 75 68 65 70 67 65 64 67 67 69 72 70 65 61 71 80 83 89
26 26 27 30 24 18 16 17 18 22 31 38 39 47 54 59 60 59 62 67 75 83 84 83 83 79 78 80 77 76 73 67 62 61 63 64 59 67 76 74 68 64 65
30 26 30 31 22 18 17 16 16 17 22 27 35 48 54 55 56 59 64 66 66 70 75 87 87 84 78 85 89 78 73 71 69 67 67 71 74 77 72 78 85 89 91
36 29 34 31 21 18 18 18 20 22 30 39 46 52 54 53 53 54 58 62 64 64 67 69 73 72 73 78 84 79 84 77 77 79 80 82 77 72 67 70 71 72 74
37 32 37 29 22 21 21 21 23 30 36 40 39 45 53 53 55 60 62 62 60 64 67 69 71 75 80 74 89 98 98 94 91 71 70 74 73 67 70 78 77 78 77
39 38 40 30 25 25 24 23 23 24 27 26 24 25 30 21 24 33 42 51 50 57 70 77 82 80 84 97 99 97 98 100 97 91 75 58 54 54 51 58 73 72 70
40 39 40 32 30 29 28 26 25 25 22 20 18 15 13 12 12 16 26 38 51 68 80 90 91 95 100 99 99 97 96 97 100 99 91 89 71 69 70 75 67 63 60
35 41 40 35 33 34 33 32 30 27 23 19 16 16 15 15 14 13 12 19 51 67 77 79 81 95 100 99 96 98 99 99 100 99 99 96 92 74 80 80 78 80 80
Wind_Speed
2 1 1 2 3 4 4 4 3 4 4 5 6 6 7 7 8 9 8 7 6 5 5 4 5 5 3 4 4 5 2 2 2 4 2 3 4 4 4 5 6 6 4
5 2 2 3 3 3 3 3 3 3 3 4 5 6 6 7 8 9 8 6 6 6 5 4 3 3 2 2 3 4 4 1 3 2 1 3 5 6 5 4 5 5 3
7 3 4 2 3 3 3 3 2 2 2 3 4 4 5 5 6 7 7 5 4 4 4 2 3 3 3 3 3 4 4 3 2 3 1 1 2 5 6 6 4 3 1
7 7 5 3 2 2 2 1 1 1 2 3 4 5 5 5 5 6 6 4 2 2 2 3 3 4 5 4 5 5 5 4 2 3 3 1 4 6 5 6 5 4 2
8 5 5 3 2 1 2 3 4 4 5 5 6 6 6 6 6 6 6 5 4 5 5 4 5 5 6 6 6 6 5 4 3 6 5 2 6 5 7 7 7 5 3
9 7 5 4 2 1 1 2 4 7 8 8 8 9 9 9 9 8 7 7 6 6 7 7 7 8 8 8 8 7 7 6 5 7 8 8 6 11 13 11 10 7 6
10 8 6 4 2 0 1 2 3 5 7 10 9 10 11 11 12 12 11 11 9 9 9 9 10 11 10 9 10 9 9 7 7 8 10 6 5 13 13 13 12 10 8
6 5 3 2 1 2 3 4 5 6 8 9 9 11 13 12 12 13 13 14 14 13 12 12 12 12 12 12 12 11 11 10 10 11 13 10 12 14 17 16 14 13 11
5 3 2 1 2 3 4 5 6 7 8 10 11 13 13 13 14 14 14 15 15 16 16 16 16 15 15 15 15 14 13 13 13 12 16 15 14 16 19 19 17 15 14
5 3 1 2 4 6 8 8 7 9 9 10 12 13 14 15 15 14 15 16 17 17 18 18 18 19 18 18 18 17 17 17 16 15 16 19 18 17 18 20 20 17 16
4 2 3 5 6 8 9 9 10 11 11 11 12 13 15 15 15 15 15 16 17 19 19 20 19 19 20 21 21 21 20 21 21 19 18 18 20 21 20 23 22 21 18
4 3 5 7 8 9 9 10 11 11 12 13 14 15 17 17 16 18 18 17 17 18 21 22 23 23 23 25 24 24 24 23 23 24 21 20 20 22 22 22 21 21 21
5 5 7 8 10 10 10 10 11 12 13 14 15 17 18 20 21 20 20 20 19 18 15 18 21 22 24 25 24 23 22 22 22 22 23 19 20 23 21 24 25 24 24
5 5 6 7 9 10 11 12 13 13 14 14 15 16 18 19 20 21 21 22 21 21 19 17 18 21 25 25 24 23 24 23 23 23 23 22 19 19 21 25 27 26 25
6 5 6 7 9 10 11 12 13 14 15 15 15 15 15 17 18 18 19 20 22 24 24 21 19 19 20 22 24 25 25 26 27 27 27 25 24 23 23 28 29 28 27
7 7 7 8 9 11 11 12 13 13 12 12 12 13 13 14 15 16 15 16 17 20 25 27 26 23 22 23 23 25 25 25 27 30 30 28 28 30 30 30 30 31 32
9 8 8 9 10 12 12 12 12 11 10 10 11 13 14 15 15 16 15 14 14 14 18 23 27 28 25 22 21 23 24 26 26 27 30 33 35 35 34 33 34 34 33
11 8 8 10 11 12 12 12 12 11 12 12 13 15 16 15 15 16 15 15 14 13 13 14 18 23 27 27 27 24 23 23 25 26 27 28 28 27 29 30 33 34 33
12 8 9 10 10 11 11 11 12 11 13 12 14 14 13 12 13 14 14 14 15 13 13 13 12 12 17 22 24 25 25 25 22 21 21 21 22 25 27 30 30 31 32
11 10 9 9 10 10 11 11 11 11 12 13 13 11 10 11 12 12 12 12 11 10 11 12 14 13 14 18 20 22 24 25 26 28 28 26 27 23 25 23 23 24 26
11 12 9 8 8 9 9 10 10 11 11 12 13 11 11 11 11 11 10 10 11 11 12 14 13 13 11 15 18 19 19 18 16 15 16 19 16 9 15 18 22 24 24
13 13 9 8 7 8 8 9 11 12 12 13 13 12 13 12 12 11 11 10 10 10 11 13 14 15 14 15 17 18 12 17 9 5 7 11 15 14 15 12 13 13 16
13 12 9 8 7 7 8 8 9 10 10 11 11 12 13 14 13 13 13 14 13 12 12 12 13 12 14 13 12 6 6 5 17 18 14 16 17 17 14 10 10 10 10
13 11 9 9 8 7 7 8 9 10 11 12 11 11 11 12 12 11 12 14 14 13 12 12 11 12 13 14 12 6 9 11 8 13 18 20 22 22 21 18 22 21 21
12 9 10 10 10 9 9 9 10 10 11 11 11 11 11 12 13 12 12 13 13 13 10 10 10 10 9 10 11 15 13 11 6 9 16 21 22 18 16 16 19 22 25
9 8 10 12 12 11 11 11 12 12 12 11 11 11 11 12 13 13 13 13 12 11 11 11 11 10 9 8 11 12 11 10 11 11 13 16 19 19 14 15 16 16 18
Wind_Direction
78 119 58 71 85 91 97 89 79 59 48 38 31 28 22 18 14 14 19 34 39 62 91 102 80 82 80 39 48 47 88 160 150 126 98 54 49 54 47 25 24 27 54
141 155 181 109 104 101 100 90 78 64 44 31 30 29 22 15 14 14 19 33 51 70 75 81 66 47 27 4 21 12 8 312 203 204 79 65 58 23 8 16 12 5 22
153 153 185 187 138 115 109 107 93 62 29 13 11 12 11 5 7 12 16 25 34 49 53 41 53 26 7 339 308 322 327 317 248 214 212 339 2 343 332 338 344 342 340
187 171 155 156 117 103 83 69 44 17 349 334 342 341 343 349 352 358 1 358 343 344 352 5 359 355 348 320 298 300 305 299 262 194 144 340 274 290 306 313 325 321 314
160 138 160 153 150 99 36 12 355 335 329 319 317 315 319 326 325 333 338 332 312 296 297 295 295 307 325 329 309 291 291 280 245 174 172 257 269 278 312 295 313 307 300
128 135 128 128 121 92 32 357 340 338 331 322 319 314 312 311 307 308 310 307 302 294 290 288 287 290 296 313 316 298 284 266 237 199 199 221 253 288 292 285 301 297 294
122 115 118 126 127 108 315 303 287 288 301 308 319 318 312 307 306 306 299 298 295 293 293 290 291 291 282 293 303 301 289 270 242 220 207 224 272 269 283 274 285 289 285
133 136 150 176 208 253 279 291 291 291 288 292 294 296 298 302 304 300 296 293 290 288 289 288 287 286 285 280 286 292 289 278 255 230 218 223 237 259 273 279 281 282 275
149 157 167 226 275 292 293 285 284 281 283 285 285 287 290 290 293 294 291 287 282 281 283 285 285 285 282 278 277 279 281 281 271 252 230 222 232 253 268 273 282 275 273
170 184 224 292 305 307 297 305 302 293 285 282 280 280 280 282 285 284 282 282 283 282 281 279 280 282 282 281 280 277 275 275 275 266 255 243 241 244 257 270 277 277 273
194 242 292 303 306 309 313 314 305 298 296 286 279 276 272 271 272 272 270 274 281 283 280 278 279 280 283 282 281 280 277 272 272 269 265 259 248 247 251 263 273 275 274
242 279 307 316 318 319 316 312 307 303 295 292 286 281 281 281 275 267 266 264 271 281 280 278 280 281 278 278 279 280 279 280 275 270 266 264 256 248 253 262 271 274 273
255 294 311 318 320 321 317 315 313 307 303 295 292 289 285 283 281 278 272 264 262 264 274 277 277 275 278 279 277 275 278 281 281 275 272 274 264 249 254 264 274 278 275
254 286 303 311 315 318 321 322 319 315 311 307 300 296 292 288 284 280 274 269 263 259 263 264 271 283 277 276 279 274 274 270 269 277 274 267 271 262 256 264 273 277 279
277 295 306 313 319 322 324 326 324 322 321 319 316 312 308 304 302 299 291 279 267 258 255 258 260 262 267 277 279 276 273 272 269 271 271 269 264 262 259 266 271 275 277
275 292 307 319 322 326 330 331 330 329 330 329 330 331 326 326 323 321 316 305 287 270 258 256 259 262 264 269 273 277 274 270 267 267 267 269 263 263 263 256 262 267 273
272 287 312 323 326 326 335 334 335 333 334 330 336 334 334 335 332 334 333 329 320 303 281 266 257 258 261 259 266 270 274 274 272 271 270 270 270 269 268 263 263 265 266
261 281 306 315 324 326 333 335 336 340 331 334 331 327 329 335 340 340 339 336 333 329 320 303 283 268 264 268 268 267 272 276 279 280 277 274 273 273 273 271 268 267 267
259 278 295 308 316 318 326 332 334 335 324 321 321 326 329 336 336 339 340 342 341 343 339 329 317 299 280 273 274 274 275 272 274 277 280 282 284 287 286 281 277 273 270
255 266 282 299 310 315 323 331 330 330 321 316 318 323 328 327 325 327 326 326 322 318 313 312 316 318 307 290 283 282 280 279 277 273 276 284 289 293 293 289 290 284 278
261 264 274 290 303 312 319 325 329 334 342 336 345 336 331 330 328 327 324 319 317 312 306 304 306 304 298 296 299 291 291 293 297 295 282 283 295 299 310 303 290 288 293
266 261 270 286 297 307 317 328 334 340 343 346 350 348 343 334 334 332 329 326 316 310 304 303 302 302 295 303 313 314 324 317 298 266 281 280 289 292 293 299 302 297 299
267 268 267 280 289 306 321 328 332 335 339 342 345 349 347 345 348 345 340 335 333 325 318 319 316 318 316 317 327 333 339 323 308 292 291 292 290 295 306 306 297 298 300
272 269 264 276 288 301 312 320 325 328 332 337 342 341 339 341 347 345 342 341 337 334 328 330 328 326 321 324 336 301 317 313 317 308 295 288 292 297 295 291 297 297 297
277 261 261 270 280 293 303 309 314 318 324 328 329 330 332 333 337 344 341 337 340 349 348 339 336 337 342 338 324 318 323 325 313 311 313 314 314 328 338 323 306 301 298
251 251 267 273 278 284 292 299 303 309 312 315 317 323 325 327 331 337 338 337 338 338 337 338 335 332 336 333 329 322 323 328 313 323 313 320 318 331 330 324 322 323 320